Overview Statistics Trail Chart Weather Telemetry Raw packets
 

This is the latest recevied weather packets stored in our database for station/object IK5UIK-3. If no packets are shown the sender has not sent any weather packets the latest 10 day(s).

<< 70 71 72 73 74 75 76 >>
Time Temp. Humidity Pressure Rain* Wind** Luminosity Snow
1788337814 26.11° C 66% 1011.4 hPa 0 mm - - -
1788337762 26.11° C 66% 1011.4 hPa 0 mm - - -
1788337454 26.11° C 66% 1011.1 hPa 0 mm - - -
1788337094 25.56° C 68% 1011.1 hPa 0 mm - - -
1788336857 25° C 68% 1011.2 hPa 0 mm - - -
1788336734 25° C 68% 1011.2 hPa 0 mm - - -
1788336374 25° C 68% 1011.1 hPa 0 mm - - -
1788336014 25° C 70% 1011.3 hPa 0 mm - - -
1788335957 24.44° C 71% 1011.3 hPa 0 mm - - -
1788335654 24.44° C 72% 1011.1 hPa 0 mm - - -
1788335294 23.89° C 74% 1011.1 hPa 0 mm - - -
1788334934 22.78° C 75% 1011.2 hPa 0 mm - - -
1788334761 22.78° C 75% 1011 hPa 0 mm - - -
1788334574 22.78° C 75% 1011.1 hPa 0 mm - - -
1788334461 22.78° C 76% 1011 hPa 0 mm - - -
1788334214 22.22° C 77% 1010.9 hPa 0 mm - - -
1788334161 22.22° C 76% 1010.9 hPa 0 mm - - -
1788333855 21.67° C 77% 1010.9 hPa 0 mm - - -
1788333557 21.67° C 78% 1010.7 hPa 0 mm - - -
1788333494 21.11° C 78% 1010.8 hPa 0 mm - - -
1788333259 21.11° C 80% 1010.7 hPa 0 mm - - -
1788333135 21.11° C 80% 1010.7 hPa 0 mm - - -
1788332957 21.11° C 80% 1010.7 hPa 0 mm - - -
1788332775 20.56° C 80% 1010.7 hPa 0 mm - - -
1788332657 20.56° C 81% 1010.8 hPa 0 mm - - -

* Rain latest hour (hover to see other rain measurements)
** Current wind speed in m/s (hover to see current wind gust speed)